Measurements were made at the meteorological tower in Juelich (50.90 N / 6.40 E) at an altitude of 20 m,
"Instrument: Carbon Dioxide Isotope Analyzer (CCIA), Los Gatos Inc.",
Responsible PI: Dr. Marc von Hobe; Forschungszentrum Juelich GmbH; IEK-7; email: m.von.hobe@fz-juelich.de,
NaN or negative numbers are fill values (i.e. no valid measurements were made at that time),
Uncertainties are given as the 1-sigma standard deviation over each 10 minute intervals. In each interval ~600 individual measurements are carried out so that the standard error of the mean is approximately sigma/sqrt(600).,
time_utc,CO2_ppm,stdev_CO2_ppm,H2O_ppm,stdev_H2O_ppm
"2014-12-01 00:05:00 000",429.580,0.927989,7500.46,20.3970
"2014-12-01 00:15:00 000",429.576,0.942601,7408.86,52.6919
"2014-12-01 00:25:00 000",429.520,0.995305,7300.49,24.8364
"2014-12-01 00:35:00 000",429.885,0.841960,7248.32,18.0808
"2014-12-01 00:45:00 000",430.447,0.868540,7231.03,14.0207
"2014-12-01 00:55:00 000",430.528,1.09038,7222.51,24.0022
"2014-12-01 01:05:00 000",430.315,0.657314,7162.84,17.9152
"2014-12-01 01:15:00 000",429.314,0.899731,7116.42,23.9638
"2014-12-01 01:25:00 000",429.188,1.08757,7106.08,20.7083
"2014-12-01 01:35:00 000",428.990,1.33614,7115.71,24.1637
"2014-12-01 01:45:00 000",428.735,0.573064,7097.44,15.1926
"2014-12-01 01:55:00 000",428.854,0.570207,7093.34,16.3071
"2014-12-01 02:05:00 000",428.798,0.730876,7059.95,16.0193
"2014-12-01 02:15:00 000",428.752,0.894718,7068.23,18.8941
"2014-12-01 02:25:00 000",428.381,0.842263,7076.48,17.3156
"2014-12-01 02:35:00 000",428.526,0.614983,7084.02,13.3430
"2014-12-01 02:45:00 000",428.620,0.841724,7092.94,17.8539
"2014-12-01 02:55:00 000",427.703,0.610995,7041.24,28.4126
"2014-12-01 03:05:00 000",427.440,0.573341,7018.78,17.0738
"2014-12-01 03:15:00 000",426.950,0.634199,7028.55,15.3346
"2014-12-01 03:25:00 000",426.245,0.608473,7004.14,21.9502
"2014-12-01 03:35:00 000",426.520,0.656803,6952.53,21.4413
"2014-12-01 03:45:00 000",427.003,0.766097,6931.48,15.3363
"2014-12-01 03:55:00 000",427.082,0.670875,6943.78,15.6157
"2014-12-01 04:05:00 000",427.226,0.886767,6963.07,18.5813
"2014-12-01 04:15:00 000",427.352,0.887004,6979.75,16.9494
"2014-12-01 04:25:00 000",426.234,0.867233,6945.33,33.2427
"2014-12-01 04:35:00 000",425.749,0.712606,6942.80,18.2002
"2014-12-01 04:45:00 000",424.710,1.01349,6969.20,35.7124
"2014-12-01 04:55:00 000",424.411,0.766078,6937.50,17.3905
"2014-12-01 05:05:00 000",424.942,0.788508,6951.33,18.9925
"2014-12-01 05:15:00 000",424.545,0.679506,6995.70,14.5442
"2014-12-01 05:25:00 000",424.063,0.874687,6997.13,17.4644
"2014-12-01 05:35:00 000",424.208,0.694670,7009.89,21.0035
"2014-12-01 05:45:00 000",425.015,0.899051,7057.26,20.4789
"2014-12-01 05:55:00 000",425.696,0.834825,7094.15,23.8813
"2014-12-01 06:05:00 000",426.278,1.02963,7120.66,18.2584
"2014-12-01 06:15:00 000",426.133,0.719089,7111.89,30.6755
"2014-12-01 06:25:00 000",426.101,1.09614,7083.94,28.4384
"2014-12-01 06:35:00 000",426.368,1.02496,7064.68,20.3192
"2014-12-01 06:45:00 000",426.267,1.03412,7064.17,18.5779
"2014-12-01 06:55:00 000",425.990,0.788062,7036.57,25.8929
"2014-12-01 07:05:00 000",426.716,1.01081,7018.92,17.2098
"2014-12-01 07:15:00 000",426.475,0.810929,6998.73,16.2429
"2014-12-01 07:25:00 000",426.713,2.22338,6992.59,19.4296
"2014-12-01 07:35:00 000",427.097,1.59670,6973.46,23.5341
"2014-12-01 07:45:00 000",426.315,1.43173,6969.42,24.2137
"2014-12-01 07:55:00 000",425.341,0.814106,6930.91,26.0889
"2014-12-01 08:05:00 000",425.885,1.50944,6949.16,21.8278
"2014-12-01 08:15:00 000",426.006,0.728794,6948.84,14.9163
"2014-12-01 08:25:00 000",425.894,1.08268,6967.39,22.9908
"2014-12-01 08:35:00 000",426.161,0.894450,6957.18,22.3477
"2014-12-01 08:45:00 000",425.799,1.02362,6989.59,21.6191
"2014-12-01 08:55:00 000",425.962,0.942121,6976.54,26.6228
"2014-12-01 09:05:00 000",425.189,0.703580,6956.25,30.1083
"2014-12-01 09:15:00 000",425.823,1.25427,6970.84,28.6233
"2014-12-01 09:25:00 000",426.073,1.28684,6960.11,29.0860
"2014-12-01 09:35:00 000",425.716,1.07236,6920.81,50.0244
"2014-12-01 09:45:00 000",426.036,0.811554,6953.60,27.7369
"2014-12-01 09:55:00 000",426.486,0.832474,6956.02,20.2064
"2014-12-01 10:05:00 000",426.272,0.962629,6865.48,50.6926
"2014-12-01 10:15:00 000",425.054,0.864780,6715.91,41.9864
"2014-12-01 10:25:00 000",425.897,0.900706,6682.46,25.3490
"2014-12-01 10:35:00 000",426.877,0.825925,6660.87,26.4223
"2014-12-01 10:45:00 000",425.054,0.884747,6647.33,18.1050
"2014-12-01 10:55:00 000",424.602,0.657932,6647.26,29.0180
"2014-12-01 11:05:00 000",424.995,0.683390,6694.64,25.7243
"2014-12-01 11:15:00 000",425.399,0.708444,6684.73,28.3356
"2014-12-01 11:25:00 000",426.484,0.603531,6722.94,36.7215
"2014-12-01 11:35:00 000",426.456,0.591030,6670.02,18.4701
"2014-12-01 11:45:00 000",427.640,0.729798,6638.20,31.8019
"2014-12-01 11:55:00 000",427.032,0.917719,6627.25,19.3933
"2014-12-01 12:05:00 000",426.547,0.757534,6591.81,20.1482
"2014-12-01 12:15:00 000",426.926,0.675855,6617.12,19.9458
"2014-12-01 12:25:00 000",426.428,0.865178,6645.01,20.9388
"2014-12-01 12:35:00 000",425.763,0.765355,6638.13,29.2019
"2014-12-01 12:45:00 000",425.396,1.46932,6642.27,45.5738
"2014-12-01 12:55:00 000",424.264,0.604554,6581.87,17.2257
"2014-12-01 13:05:00 000",424.469,0.687329,6605.48,18.5949
"2014-12-01 13:15:00 000",424.385,0.605980,6617.62,20.6063
"2014-12-01 13:25:00 000",423.970,0.778151,6634.08,22.1418
"2014-12-01 13:35:00 000",424.782,0.945720,6618.35,28.5507
"2014-12-01 13:45:00 000",425.636,1.00309,6600.31,18.9244
"2014-12-01 13:55:00 000",424.064,0.803513,6603.13,16.8332
"2014-12-01 14:05:00 000",423.545,0.629036,6625.67,19.9976
"2014-12-01 14:15:00 000",423.828,0.652374,6668.07,15.7192
"2014-12-01 14:25:00 000",424.103,0.913127,6687.40,17.3200
"2014-12-01 14:35:00 000",424.590,1.09856,6708.14,24.4505
"2014-12-01 14:45:00 000",424.562,0.678772,6698.10,18.8404
"2014-12-01 14:55:00 000",424.508,0.720524,6699.41,17.1416
"2014-12-01 15:05:00 000",424.511,0.833488,6700.13,23.3207
"2014-12-01 15:15:00 000",424.645,0.761841,6700.12,17.3608
"2014-12-01 15:25:00 000",424.862,1.50907,6720.62,22.7105
"2014-12-01 15:35:00 000",423.647,0.860623,6741.47,17.5668
"2014-12-01 15:45:00 000",422.698,0.970449,6768.08,18.6021
"2014-12-01 15:55:00 000",422.865,0.655094,6784.27,15.3345
"2014-12-01 16:05:00 000",423.603,0.849169,6816.54,18.9462
"2014-12-01 16:15:00 000",424.437,1.00860,6846.82,23.0654
"2014-12-01 16:25:00 000",424.689,1.03780,6866.21,18.4226
"2014-12-01 16:35:00 000",425.066,0.857367,6881.06,18.5922
"2014-12-01 16:45:00 000",426.243,1.28168,6911.14,27.6413
"2014-12-01 16:55:00 000",431.394,1.39623,7034.12,35.8312
"2014-12-01 17:05:00 000",434.355,0.790333,7100.44,18.7612
"2014-12-01 17:15:00 000",435.055,0.756386,7101.88,18.2627
"2014-12-01 17:25:00 000",434.893,0.713749,7090.05,17.3733
"2014-12-01 17:35:00 000",434.480,0.755475,7062.96,14.9587
"2014-12-01 17:45:00 000",434.862,1.31697,7078.24,18.8552
"2014-12-01 17:55:00 000",434.090,0.711886,7066.44,19.9778
"2014-12-01 18:05:00 000",433.675,0.675549,7075.41,20.9077
"2014-12-01 18:15:00 000",433.302,0.939837,7074.87,20.0624
"2014-12-01 18:25:00 000",432.742,1.04216,7064.68,33.4352
"2014-12-01 18:35:00 000",434.284,1.09506,7103.83,30.3229
"2014-12-01 18:45:00 000",434.262,1.01761,7107.57,19.2762
"2014-12-01 18:55:00 000",434.208,1.04282,7099.17,21.0610
"2014-12-01 19:05:00 000",434.491,1.54655,7108.73,16.9205
"2014-12-01 19:15:00 000",434.166,0.705812,7107.27,24.5668
"2014-12-01 19:25:00 000",434.819,2.40208,7117.34,19.4888
"2014-12-01 19:35:00 000",434.810,0.636499,7145.79,30.7714
"2014-12-01 19:45:00 000",435.437,0.834592,7157.57,18.9226
"2014-12-01 19:55:00 000",435.681,1.08844,7148.97,23.2775
"2014-12-01 20:05:00 000",433.928,1.47324,7123.25,39.9216
"2014-12-01 20:15:00 000",425.507,4.08143,6786.37,202.494
"2014-12-01 20:25:00 000",420.252,0.820664,6473.57,29.0719
"2014-12-01 20:35:00 000",419.749,0.624289,6447.16,16.9827
"2014-12-01 20:45:00 000",419.658,0.592524,6433.58,17.3097
"2014-12-01 20:55:00 000",420.189,0.566271,6504.72,21.2242
"2014-12-01 21:05:00 000",420.135,0.570442,6483.38,18.0643
"2014-12-01 21:15:00 000",420.549,0.571576,6505.34,20.7933
"2014-12-01 21:25:00 000",420.481,1.52276,6495.75,31.6894
"2014-12-01 21:35:00 000",420.509,0.597618,6466.32,15.9827
"2014-12-01 21:45:00 000",420.685,0.597996,6448.64,14.3221
"2014-12-01 21:55:00 000",420.843,0.613500,6425.13,19.1815
"2014-12-01 22:05:00 000",420.843,0.613362,6432.71,19.5194
"2014-12-01 22:15:00 000",420.991,0.644585,6456.55,14.4253
"2014-12-01 22:25:00 000",420.763,0.596075,6458.81,16.9162
"2014-12-01 22:35:00 000",420.579,0.588740,6445.93,15.6425
"2014-12-01 22:45:00 000",420.789,0.601365,6474.92,21.5555
"2014-12-01 22:55:00 000",420.988,0.578512,6554.94,26.7218
"2014-12-01 23:05:00 000",421.356,0.588811,6630.75,23.3670
"2014-12-01 23:15:00 000",421.382,0.599640,6705.55,20.3062
"2014-12-01 23:25:00 000",421.683,0.755317,6733.85,23.0832
"2014-12-01 23:35:00 000",421.751,0.742405,6800.43,25.3535
"2014-12-01 23:45:00 000",421.122,0.826137,6772.67,28.7599
"2014-12-01 23:55:00 000",420.060,0.670575,6726.58,16.3828
"2014-12-02 00:05:00 000",420.058,0.658584,6765.36,16.4869
"2014-12-02 00:15:00 000",420.245,0.882964,6797.57,21.5483
"2014-12-02 00:25:00 000",420.660,0.897589,6847.20,20.3208
"2014-12-02 00:35:00 000",420.824,0.750848,6904.65,32.6180
"2014-12-02 00:45:00 000",421.173,0.918587,7002.47,28.4934
"2014-12-02 00:55:00 000",421.759,0.865605,7056.00,20.8060
"2014-12-02 01:05:00 000",421.966,1.12468,7096.62,20.6769
"2014-12-02 01:15:00 000",421.786,1.53839,7107.87,28.6317
"2014-12-02 01:25:00 000",422.002,0.806405,7115.98,16.9101
"2014-12-02 01:35:00 000",422.278,0.592910,7120.61,18.3827
"2014-12-02 01:45:00 000",422.523,0.884561,7128.40,18.3934
"2014-12-02 01:55:00 000",422.768,0.687121,7141.39,16.6092
"2014-12-02 02:05:00 000",423.037,0.630106,7153.96,19.7911
"2014-12-02 02:15:00 000",423.195,0.690914,7173.62,16.8518
"2014-12-02 02:25:00 000",423.463,0.857730,7176.09,17.4180
"2014-12-02 02:35:00 000",423.473,0.957944,7185.35,15.1637
"2014-12-02 02:45:00 000",423.842,1.23573,7198.91,18.6903
"2014-12-02 02:55:00 000",424.018,0.832017,7204.89,18.1591
"2014-12-02 03:05:00 000",423.694,0.760607,7193.56,23.8389
"2014-12-02 03:15:00 000",424.102,0.978219,7192.96,18.6904
"2014-12-02 03:25:00 000",423.545,0.676030,7169.12,15.8895
"2014-12-02 03:35:00 000",423.474,0.593290,7171.73,18.6626
"2014-12-02 03:45:00 000",422.779,0.780405,7149.05,30.5565
"2014-12-02 03:55:00 000",422.304,0.733106,7104.57,21.9238
"2014-12-02 04:05:00 000",422.193,0.758791,6974.31,62.0233
"2014-12-02 04:15:00 000",422.494,0.657517,6931.58,20.4581
"2014-12-02 04:25:00 000",422.157,0.565754,6944.64,20.3501
"2014-12-02 04:35:00 000",422.823,1.21517,6962.73,25.6611
"2014-12-02 04:45:00 000",423.452,1.71376,6995.92,24.8430
"2014-12-02 04:55:00 000",423.727,0.905493,7004.42,23.8952
"2014-12-02 05:05:00 000",424.480,1.91140,7030.82,25.7621
"2014-12-02 05:15:00 000",424.314,1.06303,7060.62,20.3491
"2014-12-02 05:25:00 000",423.385,1.17792,7052.79,22.3204
"2014-12-02 05:35:00 000",423.260,0.940983,7050.08,18.6214
"2014-12-02 05:45:00 000",423.901,1.23526,7065.66,24.7266
"2014-12-02 05:55:00 000",423.865,1.43474,7096.05,18.7356
"2014-12-02 06:05:00 000",424.905,1.51879,7115.08,22.6630
"2014-12-02 06:15:00 000",424.689,0.863737,7138.76,28.7658
"2014-12-02 06:25:00 000",425.226,1.88792,7154.23,20.9469
"2014-12-02 06:35:00 000",424.322,0.663576,7105.33,26.6862
"2014-12-02 06:45:00 000",424.096,0.837196,7076.47,29.1124
"2014-12-02 06:55:00 000",424.568,1.16990,7103.94,34.6288
"2014-12-02 07:05:00 000",424.308,0.820667,7100.15,20.3984
"2014-12-02 07:15:00 000",424.082,0.599081,7104.03,28.8610
"2014-12-02 07:25:00 000",424.189,0.581654,7077.79,27.6370
"2014-12-02 07:35:00 000",424.347,0.666883,7093.06,25.0305
"2014-12-02 07:45:00 000",424.538,1.16525,7099.40,26.9458
"2014-12-02 07:55:00 000",424.725,1.59049,7109.42,24.9607
"2014-12-02 08:05:00 000",424.481,0.626593,7110.55,28.5529
"2014-12-02 08:15:00 000",424.354,0.591658,7101.68,27.7209
"2014-12-02 08:25:00 000",424.609,0.547482,7121.13,21.2503
"2014-12-02 08:35:00 000",425.161,1.11169,7145.47,23.4419
"2014-12-02 08:45:00 000",425.459,0.894030,7179.29,25.1303
"2014-12-02 08:55:00 000",425.300,0.603770,7224.20,34.0235
"2014-12-02 09:05:00 000",425.799,1.05903,7218.92,52.2749
"2014-12-02 09:15:00 000",425.534,0.737590,7222.56,34.9531
"2014-12-02 09:25:00 000",425.489,0.941634,7281.19,24.5450
"2014-12-02 09:35:00 000",425.106,0.690370,7286.50,26.6913
"2014-12-02 09:45:00 000",425.162,0.670626,7300.24,25.8153
"2014-12-02 09:55:00 000",426.468,2.72409,7347.09,48.9609
"2014-12-02 10:05:00 000",425.694,0.777305,7382.49,33.2014
"2014-12-02 10:15:00 000",425.761,0.785014,7422.92,22.4410
"2014-12-02 10:25:00 000",425.652,0.762452,7431.51,21.5147
"2014-12-02 10:35:00 000",426.357,0.695474,7514.39,35.3353
"2014-12-02 10:45:00 000",427.283,0.692880,7550.65,31.7376
"2014-12-02 10:55:00 000",427.962,0.671186,7595.68,40.9686
"2014-12-02 11:05:00 000",429.561,1.66241,7647.32,46.3342
"2014-12-02 11:15:00 000",436.852,2.53631,7528.05,50.4702
"2014-12-02 11:25:00 000",440.387,1.03317,7475.78,21.2954
"2014-12-02 11:35:00 000",440.652,0.795429,7361.87,58.0843
"2014-12-02 11:45:00 000",439.586,1.04688,7290.52,22.8551
"2014-12-02 11:55:00 000",436.772,1.19082,7243.56,31.4501
"2014-12-02 12:05:00 000",435.908,0.660761,7223.32,24.0427
"2014-12-02 12:15:00 000",436.998,0.886178,7215.47,21.9789
"2014-12-02 12:25:00 000",437.376,0.714901,7160.53,35.8019
"2014-12-02 12:35:00 000",438.033,0.773398,7040.79,75.6617
"2014-12-02 12:45:00 000",438.390,0.697403,6809.86,51.2446
"2014-12-02 12:55:00 000",438.220,0.642925,6662.97,36.3672
"2014-12-02 13:05:00 000",437.634,0.680903,6596.93,15.0501
"2014-12-02 13:15:00 000",437.424,0.798562,6608.81,18.4474
"2014-12-02 13:25:00 000",436.527,0.748700,6620.30,19.0347
"2014-12-02 13:35:00 000",436.959,0.690463,6579.44,15.0026
"2014-12-02 13:45:00 000",437.622,0.614305,6596.10,14.4636
"2014-12-02 13:55:00 000",438.227,0.685784,6611.12,18.7928
"2014-12-02 14:05:00 000",438.397,0.640738,6589.03,22.6790
"2014-12-02 14:15:00 000",439.213,1.07695,6541.42,28.6101
"2014-12-02 14:25:00 000",442.267,0.926767,6454.92,20.5732
"2014-12-02 14:35:00 000",443.929,0.922100,6434.67,21.3584
"2014-12-02 14:45:00 000",446.239,0.881335,6402.27,13.7259
"2014-12-02 14:55:00 000",448.175,0.862424,6415.84,22.3939
"2014-12-02 15:05:00 000",450.201,0.713748,6421.21,17.7226
"2014-12-02 15:15:00 000",452.305,1.12358,6378.52,31.2167
"2014-12-02 15:25:00 000",453.730,0.820120,6319.20,18.4855
"2014-12-02 15:35:00 000",452.655,0.940880,6253.55,31.4103
"2014-12-02 15:45:00 000",454.741,0.701421,6222.25,13.1039
"2014-12-02 15:55:00 000",454.744,0.795603,6197.96,18.5210
"2014-12-02 16:05:00 000",453.670,0.893409,6181.41,20.6846
"2014-12-02 16:15:00 000",451.843,0.741221,6174.74,14.6900
"2014-12-02 16:25:00 000",450.411,1.03664,6161.44,27.4886
"2014-12-02 16:35:00 000",448.427,1.02607,6127.43,16.9375
"2014-12-02 16:45:00 000",446.393,0.761916,6120.52,13.2747
"2014-12-02 16:55:00 000",445.469,0.828514,6141.75,21.3613
"2014-12-02 17:05:00 000",444.687,0.811208,6167.78,21.7393
"2014-12-02 17:15:00 000",444.152,1.05481,6210.46,18.7828
"2014-12-02 17:25:00 000",443.367,0.851160,6229.82,22.0710
"2014-12-02 17:35:00 000",443.240,0.667755,6264.78,17.0202
"2014-12-02 17:45:00 000",443.455,0.760664,6289.77,28.1694
"2014-12-02 17:55:00 000",443.252,0.616502,6344.94,14.6472
"2014-12-02 18:05:00 000",443.029,0.814506,6338.87,21.1603
"2014-12-02 18:15:00 000",442.645,0.657548,6369.74,19.5808
"2014-12-02 18:25:00 000",441.341,0.995687,6419.45,26.8275
"2014-12-02 18:35:00 000",439.831,0.979325,6506.41,36.0851
"2014-12-02 18:45:00 000",438.661,0.634084,6572.17,20.9107
"2014-12-02 18:55:00 000",438.681,1.32170,6546.89,27.5323
"2014-12-02 19:05:00 000",438.635,1.16520,6510.27,20.6157
"2014-12-02 19:15:00 000",437.724,0.999345,6531.01,16.0957
"2014-12-02 19:25:00 000",436.755,0.674452,6498.57,23.7031
"2014-12-02 19:35:00 000",435.575,0.835048,6441.41,14.0959
"2014-12-02 19:45:00 000",436.075,0.730624,6414.98,17.9370
"2014-12-02 19:55:00 000",436.051,0.741799,6422.60,17.2192
"2014-12-02 20:05:00 000",436.428,0.698405,6378.65,17.9673
"2014-12-02 20:15:00 000",436.509,0.646572,6367.00,17.1558
"2014-12-02 20:25:00 000",436.779,0.711470,6347.02,18.5455
"2014-12-02 20:35:00 000",436.573,0.690082,6378.57,18.4824
"2014-12-02 20:45:00 000",436.557,0.779406,6374.40,17.6524
"2014-12-02 20:55:00 000",436.741,0.772277,6348.18,17.8767
"2014-12-02 21:05:00 000",436.716,0.632772,6299.44,22.3439
"2014-12-02 21:15:00 000",437.271,0.696718,6219.19,46.2372
"2014-12-02 21:25:00 000",437.088,0.709653,6204.42,29.5067
"2014-12-02 21:35:00 000",436.717,0.801404,6270.39,21.6799
"2014-12-02 21:45:00 000",436.352,0.749273,6301.93,36.9302
"2014-12-02 21:55:00 000",436.247,0.965548,6337.18,24.2672
"2014-12-02 22:05:00 000",436.067,0.897644,6309.76,27.3309
"2014-12-02 22:15:00 000",435.982,0.964230,6278.78,20.7613
"2014-12-02 22:25:00 000",435.817,0.972564,6257.53,20.4653
"2014-12-02 22:35:00 000",435.218,0.802762,6228.94,24.0472
"2014-12-02 22:45:00 000",434.706,0.744321,6203.99,16.9326
"2014-12-02 22:55:00 000",434.016,0.944109,6177.41,20.1211
"2014-12-02 23:05:00 000",432.729,0.727209,6118.52,23.4797
"2014-12-02 23:15:00 000",432.434,0.611637,6066.44,21.7389
"2014-12-02 23:25:00 000",433.194,0.622889,6058.73,18.2562
"2014-12-02 23:35:00 000",434.266,0.664251,6042.80,18.6897
"2014-12-02 23:45:00 000",435.553,0.829425,6009.55,17.3547
"2014-12-02 23:55:00 000",437.063,0.671376,5969.44,20.0353
"2014-12-03 00:05:00 000",437.812,0.716650,5939.61,17.3063
"2014-12-03 00:15:00 000",439.091,0.848474,5943.40,17.3055
"2014-12-03 00:25:00 000",440.929,0.810390,5953.27,15.2237
"2014-12-03 00:35:00 000",441.858,0.763210,5940.50,25.5729
"2014-12-03 00:45:00 000",442.956,0.881370,5916.15,19.1495
"2014-12-03 00:55:00 000",442.640,1.07321,5922.60,21.6730
"2014-12-03 01:05:00 000",442.024,0.876020,5881.18,20.5505
"2014-12-03 01:15:00 000",443.362,0.837223,5867.60,26.6440
"2014-12-03 01:25:00 000",444.637,0.684923,5800.32,20.4735
"2014-12-03 01:35:00 000",444.753,0.648797,5828.71,22.3890
"2014-12-03 01:45:00 000",444.535,0.703517,5853.81,14.7952
"2014-12-03 01:55:00 000",443.442,0.716563,5845.83,27.7839
"2014-12-03 02:05:00 000",444.410,0.862719,5864.19,27.7398
"2014-12-03 02:15:00 000",447.996,1.60149,5867.97,17.3041
"2014-12-03 02:25:00 000",451.358,1.10126,5890.37,23.3876
"2014-12-03 02:35:00 000",453.341,1.05773,5907.37,19.8034
"2014-12-03 02:45:00 000",454.372,0.681020,5836.11,31.3106
"2014-12-03 02:55:00 000",454.749,0.694276,5800.34,19.6140
"2014-12-03 03:05:00 000",454.405,0.705694,5822.08,18.5642
"2014-12-03 03:15:00 000",451.777,1.25748,5858.71,16.2355
"2014-12-03 03:25:00 000",447.911,2.24536,5852.74,28.4895
"2014-12-03 03:35:00 000",445.581,1.04290,5822.69,18.0954
"2014-12-03 03:45:00 000",445.512,1.24038,5804.70,20.9182
"2014-12-03 03:55:00 000",444.442,1.23066,5821.67,26.8716
"2014-12-03 04:05:00 000",443.848,1.49516,5806.99,39.2381
"2014-12-03 04:15:00 000",443.207,1.02022,5766.97,19.5818
"2014-12-03 04:25:00 000",443.226,0.688742,5756.91,20.3258
"2014-12-03 04:35:00 000",443.067,0.731241,5732.19,17.6667
"2014-12-03 04:45:00 000",442.751,0.679959,5770.96,16.2483
"2014-12-03 04:55:00 000",441.996,1.05004,5745.92,18.2536
"2014-12-03 05:05:00 000",441.274,0.825105,5763.45,28.3219
"2014-12-03 05:15:00 000",439.130,1.57364,5813.59,26.0726
"2014-12-03 05:25:00 000",436.968,0.811616,5753.57,21.5802
"2014-12-03 05:35:00 000",436.892,0.659504,5734.42,18.1944
"2014-12-03 05:45:00 000",436.544,0.932454,5745.20,31.4127
"2014-12-03 05:55:00 000",433.848,0.808110,5801.10,26.8206
"2014-12-03 06:05:00 000",433.530,0.734447,5875.03,32.4326
"2014-12-03 06:15:00 000",433.475,0.665403,5914.95,21.8338
"2014-12-03 06:25:00 000",432.534,0.748635,5937.70,21.2135
"2014-12-03 06:35:00 000",431.876,0.748051,5938.07,19.4116
"2014-12-03 06:45:00 000",432.235,0.694041,5976.50,19.3535
"2014-12-03 06:55:00 000",431.857,0.832426,5959.19,21.3703
"2014-12-03 07:05:00 000",432.072,0.711571,5957.40,18.0111
"2014-12-03 07:15:00 000",431.876,0.757428,5942.73,19.3883
"2014-12-03 07:25:00 000",432.083,0.677579,5966.75,26.5441
"2014-12-03 07:35:00 000",432.203,0.658469,6005.74,19.5332
"2014-12-03 07:45:00 000",432.608,0.665894,5974.49,30.0986
"2014-12-03 07:55:00 000",433.081,0.701340,5965.48,19.9316
"2014-12-03 08:05:00 000",434.287,0.686294,5997.00,19.6325
"2014-12-03 08:15:00 000",434.809,0.678708,6013.11,30.2409
"2014-12-03 08:25:00 000",433.414,0.813714,5999.70,20.7688
"2014-12-03 08:35:00 000",433.034,0.644349,6002.16,22.2157
"2014-12-03 08:45:00 000",433.088,0.722107,6029.20,20.3365
"2014-12-03 08:55:00 000",433.259,0.655137,5996.46,22.3581
"2014-12-03 09:05:00 000",433.965,0.748237,6044.04,24.6364
"2014-12-03 09:15:00 000",435.178,0.705636,6014.36,25.6598
"2014-12-03 09:25:00 000",435.714,0.781785,5993.32,31.4088
"2014-12-03 09:35:00 000",435.273,0.780699,5949.96,64.3260
"2014-12-03 09:45:00 000",435.604,0.769951,5779.85,27.1743
"2014-12-03 09:55:00 000",435.865,0.673826,5741.14,19.1438
"2014-12-03 10:05:00 000",435.834,0.629664,5735.15,16.5381
"2014-12-03 10:15:00 000",435.710,0.702729,5743.46,24.5297
"2014-12-03 10:25:00 000",435.590,0.688010,5760.93,21.0474
"2014-12-03 10:35:00 000",436.142,0.685453,5774.80,26.3972
"2014-12-03 10:45:00 000",436.023,0.621124,5695.78,21.3283
"2014-12-03 10:55:00 000",436.460,0.651614,5669.47,17.9351
"2014-12-03 11:05:00 000",437.337,0.694140,5679.47,17.7281
"2014-12-03 11:15:00 000",437.570,0.667255,5706.72,16.9433
"2014-12-03 11:25:00 000",437.385,0.956135,5723.30,20.6181
"2014-12-03 11:35:00 000",437.151,0.824180,5736.41,20.3737
"2014-12-03 11:45:00 000",437.074,0.760511,5734.93,20.3420
"2014-12-03 11:55:00 000",437.450,0.956477,5726.98,22.0336
"2014-12-03 12:05:00 000",437.282,0.697049,5729.56,18.6447
"2014-12-03 12:15:00 000",437.245,0.777686,5761.04,20.6983
"2014-12-03 12:25:00 000",437.491,0.785709,5768.75,29.2362
"2014-12-03 12:35:00 000",438.049,0.688430,5818.15,27.7548
"2014-12-03 12:45:00 000",438.510,0.659831,5795.08,20.9979
"2014-12-03 12:55:00 000",438.213,0.688105,5791.74,18.6910
"2014-12-03 13:05:00 000",438.252,0.638854,5784.90,21.3524
"2014-12-03 13:15:00 000",438.474,0.648382,5780.94,17.5604
"2014-12-03 13:25:00 000",438.781,0.678529,5797.46,16.4274
"2014-12-03 13:35:00 000",439.263,0.765436,5811.96,19.0886
"2014-12-03 13:45:00 000",439.417,0.637786,5829.62,24.1319
"2014-12-03 13:55:00 000",438.933,0.662266,5818.15,19.1266
"2014-12-03 14:05:00 000",438.732,0.566690,5811.92,19.4740
"2014-12-03 14:15:00 000",439.168,0.647339,5814.02,16.8052
"2014-12-03 14:25:00 000",438.548,0.630440,5839.49,21.7018
"2014-12-03 14:35:00 000",438.166,0.591461,5872.37,15.7285
"2014-12-03 14:45:00 000",438.419,0.671319,5869.39,13.3866
"2014-12-03 14:55:00 000",438.702,0.611860,5847.89,14.8684
"2014-12-03 15:05:00 000",439.419,0.551428,5833.67,17.5544
"2014-12-03 15:15:00 000",439.697,0.649465,5820.38,24.8990
"2014-12-03 15:25:00 000",439.613,0.811294,5759.48,22.6438
"2014-12-03 15:35:00 000",439.154,0.646395,5707.06,16.3242
"2014-12-03 15:45:00 000",438.984,0.634644,5703.22,15.8645
"2014-12-03 15:55:00 000",439.303,0.630148,5688.76,18.3941
"2014-12-03 16:05:00 000",439.946,0.632844,5661.39,21.2618
"2014-12-03 16:15:00 000",439.955,0.630333,5627.21,17.0267
"2014-12-03 16:25:00 000",440.532,0.626489,5602.85,19.3766
"2014-12-03 16:35:00 000",440.826,0.623295,5585.42,15.5285
"2014-12-03 16:45:00 000",441.665,0.743026,5568.25,20.9317
"2014-12-03 16:55:00 000",441.756,0.652007,5526.99,19.5872
"2014-12-03 17:05:00 000",442.571,0.703991,5511.49,20.5470
"2014-12-03 17:15:00 000",444.010,1.04106,5528.74,16.6766
"2014-12-03 17:25:00 000",445.237,0.780018,5496.66,17.9241
"2014-12-03 17:35:00 000",445.321,0.752840,5480.56,17.6933
"2014-12-03 17:45:00 000",446.123,1.17042,5479.69,17.6075
"2014-12-03 17:55:00 000",446.193,0.944338,5491.64,17.2941
"2014-12-03 18:05:00 000",445.833,0.743544,5466.89,15.4394